sat.trackr.live / text

‹ back to catalog

CHECKMATE 5

NORAD 56163 · 2023-050B

PAYLOAD ACTIVE UNKNOWN

§ Identity

Operator
Country
US
Launch date
2023-04-02
Launch site
AFWTR
Launch vehicle
Mass (kg)
RCS (m²)

External: N2YO · Heavens-Above · Gunter

§ Orbital elements

Epoch: 2026-09-21T22:14:40.374816Z

Period
103.97 min
Inclination
81.0042°
Eccentricity
0.0007322
Mean motion
13.84996703 rev/d
Perigee alt
940.9 km
Apogee alt
951.6 km
Semi-major
7,324.4 km
B*
4.3335e-5
RAAN
338.7628°
Arg perigee
65.0312°
Mean anomaly
295.1604°
Rev number
17,555

§ Raw data

CHECKMATE 51 56163U 23050B   26264.92685619  .00000060  00000+0  43335-4 0  99942 56163  81.0042 338.7628 0007322  65.0312 295.1604 13.84996703175556

JSON: /api/v1/satellites/56163 · /tle

For live sub-satellite position, see the globe view (requires WebGL).

§ Visibility from observer

Set your observer location to see the next 7 days of passes ≥ 10°. The values pass through the URL so the page stays shareable.

No JS? Fill the form by hand. The geolocation button needs JavaScript.